Location: ????? ????
(37.9717°N, 23.4051°E)
Time: 03:52:33
(UTC+00:00)

Cosmos 2322 Rocket - Pass Details

Date: 18 April 2024
Orbit: 833 x 849 km, 71.0° (Epoch: 23 May)

Event Time Altitude Azimuth Distance (km) Brightness Sun altitude
Exits shadow 23:04:05 21° 349° (N) 1,778 4.3 -39.9°
Drops below altitude 10° 23:06:17 10° 5° (N) 2,449 5.3 -39.9°
Sets 23:08:57 0° 14° (NNE) 3,386 6.2 -39.7°
